Weather History for Heraklion, Greece

Change the Weather History Date:

Tuesday, February 19, 2013

  Actual Average Record
Temperature  
Mean Temperature 54 °F -  
Max Temperature 63 °F 61 °F 68 °F (2002)
Min Temperature 45 °F 49 °F 37 °F (2008)
Degree Days  
Heating Degree Days 11    
Growing Degree Days 4 (Base 50)    
Moisture  
Dew Point 46 °F    
Average Humidity 70    
Maximum Humidity 93    
Minimum Humidity 47    
Precipitation  
Precipitation 0.00 in 0.08 in - ()
Sea Level Pressure  
Sea Level Pressure 29.95 in    
Wind  
Wind Speed 10 mph ()    
Max Wind Speed 24 mph    
Max Gust Speed 32 mph    
Visibility 6.3 miles    
Events      
Averages and records for this station are not official NWS values.
T = Trace of Precipitation, MM = Missing Value Source: Averaged Metar Reports

Daily Weather History Graph

Daily Weather History Graph

Search for Another Location

Airport:

Trip Planner

Search our weather history database for the weather conditions in past years. The results will help you decide how hot, cold, wet, or windy it might be!

Date:

Astronomy

Feb. 19, 2013 Rise Set
Actual Time 7:01 AM EET 6:05 PM EET
Civil Twilight 6:35 AM EET 6:31 PM EET
Nautical Twilight 6:05 AM EET 7:00 PM EET
Astronomical Twilight 5:36 AM EET 7:30 PM EET
Moon 12:28 PM EET (2/19) 2:10 AM EET (2/19)
Length of Visible Light 11h 55m
Length of Day
11h 04m
Waxing Gibbous, 64% of the Moon is Illuminated
Feb 19
Waxing Gibbous
Feb 25
Full
Mar 4
Last Quarter
Mar 11
New
Mar 19
First Quarter

Hourly Weather History & Observations

Time (EET) Temp. Windchill Dew Point Humidity Pressure Visibility Wind Dir Wind Speed Gust Speed Precip Events Conditions
12:20 AM 46.4 °F 41.9 °F 41.0 °F 81% 30.04 in 6.2 mi South 9.2 mph - N/A   Partly Cloudy
12:50 AM 46.4 °F 43.5 °F 41.0 °F 81% 30.04 in 6.2 mi South 5.8 mph - N/A   Partly Cloudy
1:20 AM 46.4 °F 42.9 °F 41.0 °F 81% 30.04 in 6.2 mi SSW 6.9 mph - N/A   Partly Cloudy
1:50 AM 46.4 °F 42.4 °F 41.0 °F 81% 30.04 in 6.2 mi South 8.1 mph - N/A   Partly Cloudy
2:00 AM 46 °F - 42 °F 80% 30.06 in 6 mi South 8.1 mph - -   Scattered Clouds
2:20 AM 46.4 °F 41.9 °F 41.0 °F 81% 30.04 in 6.2 mi South 9.2 mph - N/A   Partly Cloudy
2:50 AM 46.4 °F 42.4 °F 41.0 °F 81% 30.04 in 6.2 mi South 8.1 mph - N/A   Partly Cloudy
3:50 AM 46.4 °F 42.9 °F 41.0 °F 81% 30.04 in 6.2 mi South 6.9 mph - N/A   Scattered Clouds
4:20 AM 46.4 °F 41.5 °F 41.0 °F 81% 30.04 in 6.2 mi South 10.4 mph - N/A   Scattered Clouds
4:50 AM 44.6 °F 40.2 °F 42.8 °F 93% 30.01 in 6.2 mi SSE 8.1 mph - N/A   Mostly Cloudy
5:20 AM 44.6 °F 40.2 °F 42.8 °F 93% 30.01 in 6.2 mi South 8.1 mph - N/A   Mostly Cloudy
5:50 AM 44.6 °F 40.2 °F 42.8 °F 93% 30.01 in 6.2 mi South 8.1 mph - N/A   Mostly Cloudy
6:20 AM 44.6 °F 40.2 °F 42.8 °F 93% 30.01 in 6.2 mi South 8.1 mph - N/A   Mostly Cloudy
6:50 AM 48.2 °F - 42.8 °F 82% 30.01 in 6.2 mi South 9.2 mph - N/A   Mostly Cloudy
7:20 AM 50.0 °F - 46.4 °F 87% 30.01 in 6.2 mi South 9.2 mph - N/A   Mostly Cloudy
7:50 AM 50.0 °F - 44.6 °F 82% 29.98 in 6.2 mi South 8.1 mph - N/A   Mostly Cloudy
8:00 AM 50 °F - 44 °F 73% 30.00 in 9 mi South 8.1 mph - -   Scattered Clouds
8:20 AM 50.0 °F - 44.6 °F 82% 29.98 in 6.2 mi South 8.1 mph - N/A   Mostly Cloudy
8:50 AM 55.4 °F - 46.4 °F 72% 29.98 in 6.2 mi South 11.5 mph - N/A   Mostly Cloudy
9:20 AM 55.4 °F - 46.4 °F 72% 29.98 in 6.2 mi South 11.5 mph - N/A   Mostly Cloudy
9:50 AM 59.0 °F - 42.8 °F 55% 29.98 in 6.2 mi South 15.0 mph - N/A   Scattered Clouds
10:20 AM 59.0 °F - 42.8 °F 55% 29.98 in 6.2 mi South 15.0 mph - N/A   Scattered Clouds
10:50 AM 62.6 °F - 48.2 °F 59% 29.98 in 6.2 mi South 12.7 mph - N/A   Scattered Clouds
11:20 AM 62.6 °F - 48.2 °F 59% 29.98 in 6.2 mi SSW 19.6 mph - N/A   Scattered Clouds
11:50 AM 62.6 °F - 46.4 °F 55% 29.95 in 6.2 mi SSW 18.4 mph - N/A   Scattered Clouds
12:20 PM 62.6 °F - 46.4 °F 55% 29.95 in 6.2 mi SSW 19.6 mph - N/A   Scattered Clouds
12:50 PM 62.6 °F - 46.4 °F 55% 29.92 in 6.2 mi SSW 19.6 mph - N/A   Mostly Cloudy
1:20 PM 62.6 °F - 46.4 °F 55% 29.92 in 6.2 mi South 17.3 mph 28.8 mph N/A   Mostly Cloudy
1:50 PM 62.6 °F - 46.4 °F 55% 29.92 in 6.2 mi South 17.3 mph 28.8 mph N/A   Mostly Cloudy
2:00 PM 62 °F - 47 °F 47% 29.93 in 9 mi South 17.3 mph - -   Scattered Clouds
2:20 PM 62.6 °F - 46.4 °F 55% 29.92 in 6.2 mi South 23.0 mph - N/A   Mostly Cloudy
2:50 PM 60.8 °F - 48.2 °F 63% 29.89 in 6.2 mi South 20.7 mph 32.2 mph N/A   Mostly Cloudy
3:20 PM 60.8 °F - 48.2 °F 63% 29.89 in 6.2 mi South 24.2 mph - N/A   Mostly Cloudy
3:50 PM 62.6 °F - 48.2 °F 59% 29.89 in 6.2 mi South 18.4 mph - N/A   Mostly Cloudy
4:20 PM 62.6 °F - 48.2 °F 59% 29.89 in 6.2 mi South 16.1 mph - N/A   Mostly Cloudy
4:50 PM 60.8 °F - 48.2 °F 63% 29.89 in 6.2 mi South 16.1 mph - N/A   Mostly Cloudy
5:20 PM 60.8 °F - 48.2 °F 63% 29.89 in 6.2 mi South 17.3 mph - N/A   Mostly Cloudy
5:50 PM 60.8 °F - 44.6 °F 55% 29.89 in 6.2 mi South 18.4 mph - N/A   Scattered Clouds
6:20 PM 60.8 °F - 46.4 °F 59% 29.89 in 6.2 mi South 18.4 mph - N/A   Scattered Clouds
6:50 PM 59.0 °F - 48.2 °F 67% 29.89 in 6.2 mi SSW 11.5 mph - N/A   Scattered Clouds
7:20 PM 59.0 °F - 48.2 °F 67% 29.89 in 6.2 mi SSW 6.9 mph - N/A   Scattered Clouds
7:50 PM 59.0 °F - 48.2 °F 67% 29.89 in 6.2 mi South 6.9 mph - N/A   Scattered Clouds
8:00 PM 58 °F - 49 °F 62% 29.89 in 6 mi South 6.9 mph - -   Scattered Clouds
8:20 PM 59.0 °F - 48.2 °F 67% 29.89 in 6.2 mi South 8.1 mph - N/A   Scattered Clouds
8:50 PM 57.2 °F - 50.0 °F 77% 29.86 in 6.2 mi South 12.7 mph - N/A   Scattered Clouds
9:20 PM 57.2 °F - 50.0 °F 77% 29.86 in 6.2 mi South 11.5 mph - N/A   Scattered Clouds
9:50 PM 57.2 °F - 48.2 °F 72% 29.86 in 6.2 mi SSW 11.5 mph - N/A   Scattered Clouds
10:20 PM 57.2 °F - 48.2 °F 72% 29.86 in 6.2 mi SSW 11.5 mph - N/A   Scattered Clouds
10:50 PM 57.2 °F - 48.2 °F 72% 29.83 in 6.2 mi South 11.5 mph - N/A   Scattered Clouds
11:20 PM 57.2 °F - 48.2 °F 72% 29.83 in 6.2 mi South 11.5 mph - N/A   Scattered Clouds
11:50 PM 57.2 °F - 48.2 °F 72% 29.83 in 6.2 mi South 15.0 mph - N/A   Scattered Clouds